Flag Weather past 2 weeks in Tallinn, Estonia

Now
28 °F

Partly sunny.


Feels Like: 22 °F
Forecast: 21 / 25 °F
Wind: 6 mph from South

Location: Tallinn

Current Time: Nov 28, 2014 at 3:29:52 PM

Latest Report: Nov 28, 2014 at 2:50 PM


Visibility: N/A

Pressure: 30.54 "Hg

Humidity: 93%

Dew point: 27 °F

Location of TallinnLocation

Historic Weather in Tallinn — Graph

°F

Tallinn temperature yesterday

Maximum temperature yesterday: 32 °F (at 12:20 AM)
Minimum temperature yesterday: 30 °F (at 10:50 PM)
Average temperature yesterday: 32 °F

Past Weeks' High & Low Weather Summary

 TemperatureHumidityPressure
High45 °F (Nov 13, 2:20 PM)100% (Nov 15, 2:20 AM)30.57 "Hg (Nov 15, 2:20 AM)
Low16 °F (Nov 19, 9:50 PM)81% (Nov 13, 6:50 PM)30.18 "Hg (Nov 24, 7:50 PM)
Average31 °F97%30.38 "Hg
* Reported Nov 13 2:20 PM — Nov 28 2:20 PM, Tallinn, Weather by CustomWeather, © 2014

Note: Actual official high and low records may vary slightly from our data, if they occured in-between our weather recording intervals... More about our weather records

Advertising

Tallinn weather history for previous 24 hours

 ConditionsComfort  
Time TempWeatherWind HumidityBarometerVisibility
2:20 PM
Nov 28
28 °FPartly sunny.6 mph93%30.54 "HgN/A
1:50 PM28 °FPartly sunny.6 mph93%30.54 "HgN/A
1:20 PM28 °FPartly sunny.7 mph100%30.54 "HgN/A
12:50 PM28 °FLight snow. Low clouds.8 mph100%30.54 "Hg6 mi
12:20 PM28 °FLight snow. Low clouds.8 mph100%30.54 "Hg6 mi
11:50 AM28 °FLight snow. Mostly cloudy.6 mph100%30.54 "Hg6 mi
11:20 AM28 °FLight snow. Partly sunny.7 mph100%30.51 "Hg4 mi
10:50 AM30 °FLight snow. Mostly cloudy.6 mph93%30.51 "Hg4 mi
10:20 AM30 °FIce fog.6 mph93%30.51 "Hg4 mi
9:50 AM30 °FLight snow. Mostly cloudy.5 mph93%30.51 "Hg4 mi
9:20 AM30 °FLight snow. Mostly cloudy.7 mph93%30.48 "Hg4 mi
8:50 AM30 °FLight snow. Broken clouds.6 mph93%30.48 "Hg4 mi
8:20 AM30 °FLight snow. Mostly cloudy.5 mph93%30.48 "Hg4 mi
7:50 AM30 °FLight snow. Mostly cloudy.6 mph93%30.48 "Hg4 mi
7:20 AM30 °FLight snow. Mostly cloudy.6 mph93%30.48 "Hg4 mi
6:50 AM30 °FLight snow. Mostly cloudy.6 mph93%30.45 "Hg4 mi
6:20 AM30 °FLight snow. Mostly cloudy.6 mph100%30.45 "Hg4 mi
5:50 AM30 °FLight snow. Ice fog.8 mph100%30.45 "Hg3 mi
5:20 AM30 °FLight snow. Ice fog.7 mph100%30.45 "Hg3 mi
4:50 AM30 °FLight snow. Ice fog.6 mph100%30.45 "Hg3 mi
4:20 AM30 °FLight snow. Ice fog.6 mph100%30.42 "Hg3 mi
3:50 AM30 °FLight snow. Ice fog.5 mph100%30.42 "Hg3 mi
3:20 AM30 °FLight snow. Ice fog.6 mph100%30.42 "Hg3 mi
2:50 AM30 °FLight snow. Passing clouds.6 mph100%30.42 "Hg3 mi
2:20 AM30 °FLight snow. Ice fog.6 mph100%30.42 "Hg3 mi
1:50 AM30 °FLight snow. Ice fog.5 mph100%30.42 "Hg3 mi
1:20 AM30 °FLight snow. Ice fog.3 mph100%30.42 "Hg3 mi
12:50 AM30 °FLight snow. Ice fog.3 mph100%30.42 "Hg3 mi
12:20 AM30 °FLight snow. Overcast.3 mph100%30.42 "Hg4 mi
11:50 PM
Nov 27
30 °FPassing clouds.5 mph100%30.39 "Hg4 mi
11:20 PM30 °FLight snow. Passing clouds.5 mph100%30.39 "Hg4 mi
10:50 PM30 °FLight snow. Passing clouds.2 mph100%30.39 "Hg4 mi
10:20 PM32 °FLight snow. Ice fog.3 mph93%30.39 "Hg3 mi
9:50 PM32 °FIce fog.3 mph93%30.39 "Hg3 mi
9:20 PM32 °FIce fog.5 mph93%30.39 "Hg3 mi
8:50 PM32 °FIce fog.6 mph93%30.36 "Hg3 mi
8:20 PM32 °FIce fog.5 mph93%30.36 "Hg2 mi
7:50 PM32 °FIce fog.7 mph93%30.36 "Hg3 mi
7:20 PM32 °FIce fog.5 mph100%30.36 "Hg3 mi
6:50 PM32 °FIce fog.7 mph100%30.36 "Hg2 mi
6:20 PM32 °FIce fog.6 mph100%30.33 "Hg2 mi
5:50 PM32 °FIce fog.6 mph100%30.33 "Hg2 mi
5:20 PM32 °FLight snow. Ice fog.6 mph100%30.33 "Hg2 mi
4:50 PM32 °FLight snow. Ice fog.6 mph100%30.33 "Hg2 mi
4:20 PM32 °FLight snow. Ice fog.7 mph100%30.33 "Hg2 mi
3:50 PM32 °FLight snow. Ice fog.6 mph100%30.33 "Hg2 mi
3:20 PM32 °FLight snow. Ice fog.6 mph100%30.33 "Hg2 mi
Weather by CustomWeather, © 2014

See weather overviewHow to use our weather pages